Weather History for Mosinee, WI

Change the Weather History Date:

Wednesday, July 31, 2013

  Actual Average Record
Temperature  
Mean Temperature 67 °F -  
Max Temperature 75 °F 77 °F 96 °F (2006)
Min Temperature 59 °F 56 °F 51 °F (1997)
Cooling Degree Days 2    
Growing Degree Days 17 (Base 50)    
Moisture  
Dew Point 60 °F    
Average Humidity 89    
Maximum Humidity 100    
Minimum Humidity 64    
Precipitation  
Precipitation 0.01 in - - ()
Sea Level Pressure  
Sea Level Pressure 30.04 in    
Wind  
Wind Speed 5 mph (SW)    
Max Wind Speed 12 mph    
Max Gust Speed -    
Visibility 8 miles    
Events Rain , Thunderstorm    
Averages and records for this station are not official NWS values.
T = Trace of Precipitation, MM = Missing Value Source: NWS Daily Summary

Daily Weather History Graph

Daily Weather History Graph

Search for Another Location

Airport:

Trip Planner

Search our weather history database for the weather conditions in past years. The results will help you decide how hot, cold, wet, or windy it might be!

Date:

Astronomy

Jul. 31, 2013 Rise Set
Actual Time 5:43 AM CDT 8:25 PM CDT
Civil Twilight 5:10 AM CDT 8:59 PM CDT
Nautical Twilight 4:27 AM CDT 9:41 PM CDT
Astronomical Twilight 3:38 AM CDT 10:30 PM CDT
Moon 12:39 AM CDT (7/31) 3:42 PM CDT (7/31)
Length of Visible Light 15h 48m
Length of Day
14h 41m
Waning Crescent, 31% of the Moon is Illuminated
Jul 31
Waning Crescent
Aug 6
New
Aug 14
First Quarter
Aug 20
Full
Aug 28
Last Quarter

Hourly Weather History & Observations

Time (CDT) Temp. Dew Point Humidity Pressure Visibility Wind Dir Wind Speed Gust Speed Precip Events Conditions
12:15 AM 60.8 °F 59.0 °F 94% 30.10 in 7.0 mi South 3.5 mph - N/A   Scattered Clouds
12:35 AM 60.8 °F 59.0 °F 94% 30.10 in 7.0 mi SSW 3.5 mph - N/A   Mostly Cloudy
12:55 AM 62.6 °F 60.8 °F 94% 30.09 in 10.0 mi South 3.5 mph - N/A   Overcast
1:15 AM 62.6 °F 60.8 °F 94% 30.10 in 7.0 mi South 4.6 mph - N/A   Overcast
1:35 AM 62.6 °F 60.8 °F 94% 30.09 in 10.0 mi South 4.6 mph - N/A   Overcast
2:15 AM 60.8 °F 59.0 °F 94% 30.07 in 7.0 mi South 5.8 mph - N/A   Mostly Cloudy
2:35 AM 59.0 °F 59.0 °F 100% 30.07 in 7.0 mi SSW 5.8 mph - N/A   Scattered Clouds
2:55 AM 60.8 °F 60.8 °F 100% 30.08 in 7.0 mi SSW 5.8 mph - N/A   Mostly Cloudy
3:15 AM 60.8 °F 60.8 °F 100% 30.07 in 7.0 mi SSW 3.5 mph - N/A   Overcast
3:35 AM 60.8 °F 60.8 °F 100% 30.07 in 7.0 mi SSW 3.5 mph - N/A   Overcast
3:55 AM 60.8 °F 60.8 °F 100% 30.06 in 10.0 mi South 4.6 mph - N/A   Mostly Cloudy
4:15 AM 59.0 °F 59.0 °F 100% 30.06 in 7.0 mi SSW 4.6 mph - N/A   Clear
4:35 AM 59.0 °F 59.0 °F 100% 30.07 in 7.0 mi SSW 4.6 mph - N/A   Scattered Clouds
4:55 AM 59.0 °F 59.0 °F 100% 30.06 in 7.0 mi South 4.6 mph - N/A   Mostly Cloudy
5:15 AM 59.0 °F 59.0 °F 100% 30.06 in 7.0 mi Calm Calm - N/A   Mostly Cloudy
5:35 AM 59.0 °F 59.0 °F 100% 30.07 in 7.0 mi Calm Calm - N/A   Mostly Cloudy
5:45 AM 60.8 °F 60.8 °F 100% 30.08 in 7.0 mi Calm Calm - N/A   Overcast
6:45 AM 60.8 °F 60.8 °F 100% 30.07 in 5.0 mi Calm Calm - N/A   Mostly Cloudy
7:45 AM 62.6 °F 62.6 °F 100% 30.07 in 5.0 mi Calm Calm - N/A   Mostly Cloudy
8:25 AM 66.2 °F 66.2 °F 100% 30.07 in 5.0 mi WSW 5.8 mph - N/A   Overcast
8:45 AM 66.2 °F 64.4 °F 94% 30.07 in 7.0 mi West 8.1 mph - N/A   Overcast
9:25 AM 66.2 °F 64.4 °F 94% 30.06 in 7.0 mi NW 6.9 mph - N/A   Overcast
9:45 AM 68.0 °F 64.4 °F 88% 30.05 in 7.0 mi West 4.6 mph - N/A   Mostly Cloudy
10:45 AM 71.6 °F 64.4 °F 78% 30.04 in 10.0 mi West 4.6 mph - N/A   Scattered Clouds
11:45 AM 73.4 °F 64.4 °F 73% 30.04 in 10.0 mi WSW 9.2 mph - N/A   Mostly Cloudy
12:45 PM 75.2 °F 62.6 °F 65% 30.01 in 10.0 mi WSW 10.4 mph - N/A   Mostly Cloudy
1:50 PM 73.4 °F 62.6 °F 69% 30.00 in 7.0 mi WSW 8.1 mph - N/A   Mostly Cloudy
2:10 PM 66.2 °F 64.4 °F 94% 30.03 in 2.0 mi WSW 9.2 mph - N/A Rain , Thunderstorm Heavy Thunderstorms and Rain
2:45 PM 62.6 °F 60.8 °F 94% 30.01 in 7.0 mi SSE 4.6 mph - N/A Thunderstorm Mostly Cloudy
3:50 PM 64.4 °F 62.6 °F 94% 30.01 in 10.0 mi SW 9.2 mph - N/A   Mostly Cloudy
4:45 PM 69.8 °F 66.2 °F 88% 29.99 in 10.0 mi SW 11.5 mph - N/A   Clear
5:47 PM 73.4 °F 64.4 °F 73% 29.97 in 10.0 mi WSW 11.5 mph - N/A   Scattered Clouds
6:50 PM 71.6 °F 60.8 °F 69% 29.96 in 10.0 mi West 9.2 mph - N/A   Mostly Cloudy
7:47 PM 69.8 °F 57.2 °F 64% 29.97 in 10.0 mi WNW 8.1 mph - N/A   Scattered Clouds
8:55 PM 64.4 °F 57.2 °F 77% 29.97 in 10.0 mi West 4.6 mph - N/A   Clear
9:53 PM 62.6 °F 55.4 °F 77% 29.98 in 10.0 mi West 8.1 mph - N/A   Clear
10:15 PM 62.6 °F 55.4 °F 77% 29.98 in 10.0 mi WNW 6.9 mph - N/A   Clear
10:35 PM 60.8 °F 55.4 °F 82% 29.98 in 7.0 mi West 4.6 mph - N/A   Clear
10:55 PM 60.8 °F 55.4 °F 82% 29.98 in 7.0 mi West 5.8 mph - N/A   Clear
11:15 PM 59.0 °F 55.4 °F 88% 29.99 in 10.0 mi West 4.6 mph - N/A   Clear
11:35 PM 60.8 °F 55.4 °F 82% 29.99 in 7.0 mi West 5.8 mph - 0.01 in   Clear
11:55 PM 59.0 °F 55.4 °F 88% 29.98 in 10.0 mi WNW 3.5 mph - 0.01 in   Clear